Location: *
(51.5000°N, 0.1100°W)
Time: 23:55:00
(UTC+00:00)

MSX - Pass Details

Date: 09 August 2024
Orbit: 895 x 904 km, 99.0° (Epoch: 09 September)

Event Time Altitude Azimuth Distance (km) Brightness Sun altitude
Rises 01:58:54 0° 16° (NNE) 3,544 8.5 -18.4°
Reaches altitude 10° 02:01:19 10° 17° (NNE) 2,599 7.4 -18.2°
Maximum altitude 02:07:09 81° 105° (ESE) 924 3.9 -17.8°
Enters shadow 02:10:32 26° 190° (S) 1,695 4.7 -17.5°
